Regional Weather Roundup
Issued by NWS

Home | Current Version | Previous Version | Text Only | Print | Product List | Glossary Off
Versions: 1 2 3 4 5 6 7 8 9 10 11 12 13 14 15 16 17 18 19 20 21 22 23 24 25 26 27 28 29 30 31 32 33 34 35 36 37 38 39 40 41 42 43 44 45 46 47 48 49 50

000
ASUS45 KBOU 290710
RWRCO

WEATHER ROUNDUP FOR COLORADO
NATIONAL WEATHER SERVICE DENVER/BOULDER CO
100 AM MDT WED JUL 29 2015

NOTE: "FAIR" INDICATES FEW OR NO CLOUDS BELOW 12000 FEET WITH NO
SIGNIFICANT WEATHER AND/OR OBSTRUCTIONS TO VISIBILITY.

COZ001>005-013-030-031-290800-
...NORTHWEST COLORADO...

CITY           SKY/WX    TMP DP  RH WIND       PRES   REMARKS
CRAIG          CLEAR     50  29  44 VRB3      30.32R
HAYDEN         CLEAR     50  30  46 N3        30.33S
MEEKER         CLEAR     53  35  50 E7        30.33R
MOUNT WERNER   NOT AVBL
STEAMBOAT SPGS CLEAR     49  35  58 CALM      30.35R
WALDEN         CLEAR     37  28  70 SE7       30.43S
$$

COZ006>008-011-290800-
...WEST CENTRAL VALLEYS...

CITY           SKY/WX    TMP DP  RH WIND       PRES   REMARKS
GRAND JUNCTION PTCLDY    70  30  22 N3        30.15S
MONTROSE       PTCLDY    63  37  38 SE8       30.25R
EAGLE          CLEAR     57  34  41 SE5       30.34S
RIFLE          CLEAR     60  34  37 SE9       30.24R
DELTA          PTCLDY    65  33  30 NE6       30.19S
NUCLA          PTCLDY    63  32  31 E10       30.27S
$$

COZ017>023-064>068-290800-
...SOUTHWEST COLORADO...

CITY           SKY/WX    TMP DP  RH WIND       PRES   REMARKS
DURANGO        PTCLDY    61  35  37 CALM      30.25S
CORTEZ         CLEAR     60  37  42 N6        30.22S
PAGOSA SPRINGS CLOUDY    67  34  29 CALM      30.36R
TELLURIDE      PTCLDY    54  33  46 CALM      30.49S
WOLF CREEK PAS NOT AVBL
$$

COZ009-010-012-014-032>034-037-058>063-290800-
...CENTRAL COLORADO...

CITY           SKY/WX    TMP DP  RH WIND       PRES   REMARKS
ASPEN          CLEAR     51  36  56 S6        30.39R
BUENA VISTA    PTCLDY    55  37  49 SW5       30.43F
COPPER MTN     CLEAR     52  36  54 S12       30.69S
BERTHOUD PASS  FAIR      37  30  75 SE22      30.73F
COTTONWOOD PAS PTCLDY    55  34  44 CALM      30.56F
GUNNISON       PTCLDY    54  34  47 N7        30.40S
KREMMLING      CLEAR     50  36  57 SW3       30.41R
LEADVILLE      CLEAR     49  34  56 VRB3      30.54R
MONARCH PASS   MOCLDY    45  34  65 E10       30.79S
SALIDA         PTCLDY    65  38  37 E6        30.47R
SUNLIGHT       CLEAR     52  28  40 NE5       30.62S
WILKERSON PASS PTCLDY    46  34  61 S12G18    30.67S
$$

COZ069>075-290800-
...SAN LUIS VALLEY/SANGRE DE CRISTO MOUNTAINS...

CITY           SKY/WX    TMP DP  RH WIND       PRES   REMARKS
ALAMOSA        MOCLDY    60  48  64 SE13      30.34S
LA VETA PASS   PTCLDY    52  43  71 MISG      30.56F
SAGUACHE       MOCLDY    59  43  55 E3        30.40R
$$

COZ035-036-038>040-290800-
...NORTHERN COLORADO FRONT RANGE...

CITY           SKY/WX    TMP DP  RH WIND       PRES   REMARKS
DENVER INTL AP PTCLDY    60  44  55 S9        30.29S
DMNS CITY PARK   N/A     64  46  51 E6G12     30.27S
AURORA         PTCLDY    58  44  60 SE7       30.30F
FRONT RANGE AP NOT AVBL
ERIE MUNI ARPT CLEAR     63  42  46 CALM      30.26S
BOULDER MUN AP CLEAR     64  41  42 NW3       30.28S
CENTENNIAL     PTCLDY    64  44  48 SE7       30.31S
BROOMFIELD     CLEAR     64  41  42 CALM      30.30F
FORT COLLINS   CLEAR     64  39  39 CALM      30.29S
LONGMONT       CLEAR     65  45  48 CALM      30.29S
$$

COZ041-046-047-076>085-087-088-290800-
...PIKES PEAK/PALMER DIVIDE AND SOUTHERN FOOTHILLS...

CITY           SKY/WX    TMP DP  RH WIND       PRES   REMARKS
COLO. SPRINGS  MOCLDY    65  41  41 VRB3      30.35S
A. F. ACADEMY  CLEAR     60  40  48 S3        30.36S
ELLICOTT       CLEAR    N/A N/A N/A E9        30.32R
FALCON         CLEAR     56  42  59 CALM      30.39S
FORT CARSON    CLOUDY    62  45  53 NW3       30.32R
LIMON          PTCLDY    59  45  59 SE5       30.30S
MONUMENT HILL  CLEAR     50  43  76 S9        30.39S
TRINIDAD       MOCLDY    63  47  55 E7        30.28R
$$

COZ042>045-048>051-090-091-290800-
...NORTHEAST COLORADO...

CITY           SKY/WX    TMP DP  RH WIND       PRES   REMARKS
GREELEY ARPT   CLEAR     63  43  48 S6        30.26F
AKRON          CLEAR     63  45  51 S9        30.25R
BURLINGTON     PTCLDY    64  51  62 NE3       30.23R
WRAY           CLEAR     55  49  79 SE3       30.21R
STERLING       NOT AVBL
HOLYOKE        CLEAR     59  52  77 NW3       30.21S
FORT MORGAN    CLEAR     61  40  46 CALM      30.25S
$$

COZ086-089-092>099-290800-
...SOUTHEAST COLORADO...

CITY           SKY/WX    TMP DP  RH WIND       PRES   REMARKS
PUEBLO         MOCLDY    74  42  31 E13       30.23R
LA JUNTA       MOCLDY    67  52  58 E9        30.22R
LAMAR          CLOUDY    67  56  67 NE6       30.20R
SPRINGFIELD    NOT AVBL
$$


USA.gov is the U.S. government's official web portal to all federal, state and local government web resources and services.